Rogers City, MI

3:37 AM EDT on September 30, 2016 (GMT -0400)
Presque Isle County

Weather History for KPZQ - February, 2013

Change the Weather History Date:

Monday, February 4, 2013

  Actual Average (KAPN) Record (KAPN)
Temperature  
Mean Temperature 10 °F 19 °F  
Max Temperature 18 °F 27 °F 53 °F (1991)
Min Temperature 2 °F 10 °F -24 °F (1978)
Degree Days  
Heating Degree Days 55 46  
Month to date heating degree days 184  
Since 1 July heating degree days 4666  
Moisture  
Dew Point 2 °F    
Average Humidity 70    
Maximum Humidity 86    
Minimum Humidity 48    
Precipitation  
Precipitation 0.00 in 0.04 in 0.64 in (1936)
Month to date precipitation 0.17  
Year to date precipitation 1.83  
Snow  
Snow 0.00 in 0.60 in 7.80 in (1934)
Month to date snowfall 2.6  
Since 1 July snowfall 51.2  
Snow Depth -    
Sea Level Pressure  
Sea Level Pressure 29.92 in    
Wind  
Wind Speed 7 mph (WSW)    
Max Wind Speed 10 mph    
Max Gust Speed -    
Visibility 10 miles    
Events      
T = Trace of Precipitation, MM = Missing Value Source: NWS Daily Summary

Daily Weather History Graph

Daily Weather History Graph

Search for Another Location

Airport or City:

Trip Planner

Search our weather history database for the weather conditions in past years. The results will help you decide how hot, cold, wet, or windy it might be!

Date:

Astronomy

Feb. 04, 2013 Rise Set
Actual Time 7:52 AM EST 5:46 PM EST
Civil Twilight 7:20 AM EST 6:18 PM EST
Nautical Twilight 6:45 AM EST 6:53 PM EST
Astronomical Twilight 6:11 AM EST 7:27 PM EST
Moon 2:30 AM EST (2/4) 12:05 PM EST (2/4)
Length of Visible Light 10h 57m
Length of Day
9h 54m
Last Quarter, 37% of the Moon is Illuminated
Feb 4
Last Quarter
Feb 10
New
Feb 17
First Quarter
Feb 25
Full
Mar 4
Last Quarter

Hourly Weather History & Observations

Time (EST) Temp. Windchill Dew Point Humidity Pressure Visibility Wind Dir Wind Speed Gust Speed Precip Events Conditions
12:15 AM 7.5 °F -6.0 °F 0.5 °F 73% 29.90 in 10.0 mi West 9.2 mph - N/A   Clear
12:35 AM 6.8 °F -5.9 °F 0.3 °F 75% 29.91 in 10.0 mi West 8.1 mph - N/A   Clear
12:55 AM 6.4 °F -6.3 °F 0.3 °F 76% 29.91 in 10.0 mi West 8.1 mph - N/A   Clear
1:15 AM 6.8 °F -6.9 °F 0.3 °F 75% 29.91 in 10.0 mi West 9.2 mph - N/A   Clear
1:35 AM 6.1 °F -6.8 °F -0.2 °F 75% 29.92 in 10.0 mi WSW 8.1 mph - N/A   Clear
1:55 AM 5.9 °F -8.0 °F -0.4 °F 75% 29.92 in 10.0 mi WSW 9.2 mph - N/A   Clear
2:15 AM 6.4 °F -5.2 °F 0.1 °F 75% 29.92 in 10.0 mi WSW 6.9 mph - N/A   Clear
2:35 AM 6.4 °F -6.3 °F 0.3 °F 76% 29.93 in 10.0 mi WSW 8.1 mph - N/A   Clear
2:55 AM 5.7 °F -4.8 °F -0.0 °F 77% 29.94 in 10.0 mi WSW 5.8 mph - N/A   Clear
3:15 AM 4.8 °F -8.3 °F -0.4 °F 79% 29.93 in 10.0 mi WSW 8.1 mph - N/A   Clear
3:35 AM 5.2 °F -6.7 °F 0.3 °F 80% 29.93 in 10.0 mi WSW 6.9 mph - N/A   Scattered Clouds
3:56 AM 5.0 °F -5.6 °F 0.1 °F 80% 29.93 in 10.0 mi SW 5.8 mph - N/A   Scattered Clouds
4:15 AM 4.6 °F -6.0 °F -0.0 °F 81% 29.93 in 10.0 mi SW 5.8 mph - N/A   Clear
5:55 AM 4.6 °F -6.0 °F 0.5 °F 83% 29.93 in 10.0 mi WSW 5.8 mph - N/A   Clear
6:15 AM 3.7 °F -7.1 °F -0.2 °F 84% 29.93 in 10.0 mi WSW 5.8 mph - N/A   Clear
6:35 AM 3.4 °F -7.5 °F -0.2 °F 85% 29.93 in 10.0 mi WSW 5.8 mph - N/A   Clear
6:55 AM 3.7 °F -8.4 °F 0.3 °F 86% 29.93 in 10.0 mi WSW 6.9 mph - N/A   Clear
7:15 AM 3.2 °F -4.2 °F -0.6 °F 84% 29.94 in 10.0 mi SW 3.5 mph - N/A   Clear
7:36 AM 2.7 °F -8.4 °F -1.1 °F 84% 29.94 in 10.0 mi SW 5.8 mph - N/A   Clear
7:56 AM 3.7 °F -8.4 °F 0.1 °F 85% 29.94 in 10.0 mi SW 6.9 mph - N/A   Clear
8:15 AM 4.1 °F -6.7 °F 0.5 °F 85% 29.94 in 10.0 mi SW 5.8 mph - N/A   Scattered Clouds
8:35 AM 5.0 °F -8.1 °F 1.4 °F 85% 29.95 in 10.0 mi SW 8.1 mph - N/A   Clear
8:55 AM 6.4 °F -3.9 °F 2.3 °F 83% 29.95 in 10.0 mi WSW 5.8 mph - N/A   Clear
9:15 AM 7.7 °F -2.4 °F 3.2 °F 82% 29.96 in 10.0 mi WSW 5.8 mph - N/A   Clear
9:36 AM 9.5 °F -1.5 °F 4.1 °F 79% 29.96 in 10.0 mi WSW 6.9 mph - N/A   Clear
9:55 AM 10.9 °F 2.9 °F 5.0 °F 77% 29.96 in 10.0 mi WSW 4.6 mph - N/A   Clear
10:15 AM 11.8 °F 1.3 °F 5.0 °F 74% 29.96 in 10.0 mi SW 6.9 mph - N/A   Clear
10:35 AM 13.1 °F 4.0 °F 5.4 °F 71% 29.96 in 10.0 mi SW 5.8 mph - N/A   Clear
10:55 AM 13.8 °F 8.0 °F 5.7 °F 70% 29.95 in 10.0 mi WSW 3.5 mph - N/A   Clear
11:15 AM 14.9 °F 7.5 °F 5.4 °F 66% 29.95 in 10.0 mi SW 4.6 mph - N/A   Clear
11:35 AM 16.5 °F 9.4 °F 4.8 °F 60% 29.95 in 10.0 mi West 4.6 mph - N/A   Clear
11:55 AM 16.7 °F 11.2 °F 3.4 °F 56% 29.95 in 10.0 mi West 3.5 mph - N/A   Clear
12:12 PM 17.6 °F 9.3 °F 3.7 °F 55% 29.95 in 10.0 mi NW 5.8 mph - N/A   Scattered Clouds
12:46 PM 17.4 °F 10.4 °F 1.8 °F 50% 29.93 in 10.0 mi NW 4.6 mph - N/A   Mostly Cloudy
12:55 PM 18.1 °F 8.9 °F 2.1 °F 50% 29.93 in 10.0 mi West 6.9 mph - N/A   Mostly Cloudy
1:15 PM 17.6 °F 7.3 °F 3.4 °F 54% 29.93 in 10.0 mi NNW 8.1 mph - N/A   Overcast
1:35 PM 16.7 °F 4.5 °F 3.7 °F 57% 29.93 in 10.0 mi NNW 10.4 mph - N/A   Overcast
1:55 PM 16.2 °F 5.5 °F 2.7 °F 55% 29.92 in 10.0 mi WNW 8.1 mph - N/A   Overcast
2:15 PM 16.3 °F 6.7 °F 3.6 °F 57% 29.91 in 10.0 mi NW 6.9 mph - N/A   Overcast
2:35 PM 16.5 °F 8.1 °F 3.4 °F 56% 29.91 in 10.0 mi NNW 5.8 mph - N/A   Overcast
2:55 PM 18.1 °F 7.9 °F 1.4 °F 48% 29.91 in 10.0 mi SW 8.1 mph - N/A   Overcast
3:35 PM 18.3 °F 9.1 °F 3.6 °F 53% 29.91 in 10.0 mi WSW 6.9 mph - N/A   Overcast
3:55 PM 17.6 °F 7.3 °F 4.5 °F 56% 29.91 in 10.0 mi NNW 8.1 mph - N/A   Overcast
4:15 PM 17.2 °F 8.9 °F 3.7 °F 56% 29.91 in 10.0 mi West 5.8 mph - N/A   Overcast
4:35 PM 16.3 °F 7.8 °F 1.8 °F 53% 29.90 in 10.0 mi WSW 5.8 mph - N/A   Mostly Cloudy
4:55 PM 16.2 °F 7.6 °F 1.4 °F 52% 29.90 in 10.0 mi West 5.8 mph - N/A   Overcast
5:15 PM 16.0 °F 8.8 °F 2.3 °F 55% 29.90 in 10.0 mi WNW 4.6 mph - N/A   Overcast
5:35 PM 15.6 °F 8.3 °F 1.8 °F 54% 29.90 in 10.0 mi West 4.6 mph - N/A   Overcast
5:55 PM 14.5 °F 8.8 °F 1.4 °F 56% 29.90 in 10.0 mi West 3.5 mph - N/A   Overcast
6:15 PM 14.0 °F - 1.8 °F 58% 29.89 in 10.0 mi Calm Calm - N/A   Mostly Cloudy
6:35 PM 10.9 °F 4.7 °F 1.9 °F 67% 29.90 in 10.0 mi WSW 3.5 mph - N/A   Mostly Cloudy
6:55 PM 9.3 °F 2.8 °F 1.9 °F 72% 29.90 in 10.0 mi WSW 3.5 mph - N/A   Scattered Clouds
7:15 PM 8.2 °F 1.6 °F 1.6 °F 74% 29.91 in 10.0 mi WSW 3.5 mph - N/A   Scattered Clouds
7:35 PM 9.0 °F 2.4 °F 1.6 °F 72% 29.91 in 10.0 mi West 3.5 mph - N/A   Scattered Clouds
7:55 PM 10.0 °F 1.8 °F 1.4 °F 68% 29.92 in 10.0 mi West 4.6 mph - N/A   Scattered Clouds
8:15 PM 9.3 °F 1.0 °F 1.0 °F 69% 29.92 in 10.0 mi West 4.6 mph - N/A   Mostly Cloudy
8:35 PM 10.0 °F 1.8 °F 1.0 °F 67% 29.93 in 10.0 mi West 4.6 mph - N/A   Overcast
8:55 PM 10.2 °F 2.0 °F 0.5 °F 65% 29.92 in 10.0 mi WSW 4.6 mph - N/A   Overcast
9:15 PM 9.3 °F 2.8 °F 1.2 °F 70% 29.92 in 10.0 mi WSW 3.5 mph - N/A   Overcast
9:35 PM 8.6 °F 0.1 °F 0.9 °F 71% 29.92 in 10.0 mi WSW 4.6 mph - N/A   Overcast
9:55 PM 8.8 °F 2.2 °F 0.7 °F 70% 29.92 in 10.0 mi WSW 3.5 mph - N/A   Mostly Cloudy
10:16 PM 6.8 °F -2.0 °F -0.0 °F 74% 29.92 in 10.0 mi SW 4.6 mph - N/A   Scattered Clouds
10:35 PM 5.4 °F -1.7 °F -0.8 °F 76% 29.91 in 10.0 mi SW 3.5 mph - N/A   Clear
10:55 PM 5.5 °F -1.5 °F -0.2 °F 77% 29.91 in 10.0 mi SW 3.5 mph - N/A   Clear
11:15 PM 5.4 °F -1.7 °F -0.9 °F 75% 29.91 in 10.0 mi SW 3.5 mph - N/A   Clear
11:35 PM 4.3 °F -4.9 °F -1.7 °F 76% 29.91 in 10.0 mi WSW 4.6 mph - N/A   Clear
11:56 PM 3.9 °F -5.3 °F -1.8 °F 77% 29.90 in 7.0 mi SW 4.6 mph - N/A   Clear